• en France
  • Liste des pays
  • À 7 jours
  • Température de l'eau
  • Carte satellitaire
  • Carte météo
  • Widgets météo
  • user-avatar
    Se connecter

    Météo par heure à Novokrasnoe

    Ce jour, 21 Juillet, Samedi

    Heure Température Précipitation Vent Pression Humidité
    00:00 +20°C° 0 mm 2 m/s 744 mmHg 92%
    01:00 +20°C° 0 mm 2 m/s 744 mmHg 93%
    02:00 +20°C° 0 mm 2 m/s 744 mmHg 93%
    03:00 +20°C° 0 mm 2 m/s 744 mmHg 94%
    04:00 +20°C° 0,1 mm 2 m/s 744 mmHg 94%
    05:00 +20°C° 0,1 mm 3 m/s 744 mmHg 94%
    06:00 +20°C° 0,1 mm 3 m/s 744 mmHg 94%
    07:00 +22°C° 0 mm 3 m/s 744 mmHg 89%
    08:00 +23°C° 0 mm 4 m/s 744 mmHg 84%
    09:00 +25°C° 0 mm 4 m/s 744 mmHg 80%
    10:00 +26°C° 0,4 mm 4 m/s 744 mmHg 75%
    11:00 +27°C° 0,4 mm 4 m/s 744 mmHg 70%
    12:00 +28°C° 0,4 mm 5 m/s 744 mmHg 65%
    13:00 +28°C° 0,5 mm 5 m/s 744 mmHg 66%
    14:00 +28°C° 0,5 mm 5 m/s 744 mmHg 66%
    15:00 +29°C° 0,5 mm 6 m/s 744 mmHg 66%
    16:00 +28°C° 0,4 mm 5 m/s 744 mmHg 69%
    17:00 +28°C° 0,4 mm 5 m/s 744 mmHg 72%
    18:00 +27°C° 0,4 mm 4 m/s 744 mmHg 76%
    19:00 +26°C° 0,2 mm 4 m/s 744 mmHg 80%
    20:00 +25°C° 0,2 mm 4 m/s 744 mmHg 84%
    21:00 +22°C° 0,2 mm 4 m/s 744 mmHg 89%
    22:00 +22°C° 0 mm 4 m/s 744 mmHg 91%
    23:00 +21°C° 0 mm 4 m/s 744 mmHg 93%

    Demain, 22 Juillet, Dimanche

    Heure Température Précipitation Vent Pression Humidité
    00:00 +20°C° 0 mm 4 m/s 744 mmHg 95%
    01:00 +20°C° 0 mm 4 m/s 744 mmHg 95%
    02:00 +20°C° 0 mm 4 m/s 745 mmHg 95%
    03:00 +20°C° 0 mm 4 m/s 745 mmHg 95%
    04:00 +20°C° 0 mm 4 m/s 745 mmHg 94%
    05:00 +20°C° 0 mm 4 m/s 745 mmHg 94%
    06:00 +20°C° 0 mm 5 m/s 745 mmHg 93%
    07:00 +20°C° 0 mm 5 m/s 745 mmHg 91%
    08:00 +21°C° 0 mm 5 m/s 745 mmHg 90%
    09:00 +21°C° 0 mm 5 m/s 745 mmHg 88%
    10:00 +21°C° 0,1 mm 5 m/s 746 mmHg 87%
    11:00 +21°C° 0,1 mm 5 m/s 746 mmHg 85%
    12:00 +21°C° 0,1 mm 6 m/s 746 mmHg 84%
    13:00 +21°C° 0,1 mm 6 m/s 746 mmHg 84%
    14:00 +21°C° 0,1 mm 6 m/s 746 mmHg 84%
    15:00 +21°C° 0,1 mm 6 m/s 746 mmHg 83%
    16:00 +21°C° 0,1 mm 6 m/s 746 mmHg 85%
    17:00 +21°C° 0,1 mm 6 m/s 746 mmHg 86%
    18:00 +20°C° 0,1 mm 6 m/s 746 mmHg 87%
    19:00 +20°C° 0 mm 5 m/s 746 mmHg 87%
    20:00 +20°C° 0 mm 5 m/s 746 mmHg 88%
    21:00 +20°C° 0 mm 5 m/s 746 mmHg 88%
    22:00 +19°C° 0 mm 5 m/s 746 mmHg 88%
    23:00 +19°C° 0 mm 5 m/s 746 mmHg 88%

    Après-demain, 23 Juillet, Lundi

    Heure Température Précipitation Vent Pression Humidité
    00:00 +19°C° 0 mm 5 m/s 746 mmHg 89%
    01:00 +19°C° 0,1 mm 5 m/s 746 mmHg 90%
    02:00 +17°C° 0,1 mm 5 m/s 746 mmHg 91%
    03:00 +17°C° 0,1 mm 5 m/s 746 mmHg 92%
    04:00 +17°C° 0,1 mm 5 m/s 746 mmHg 91%
    05:00 +17°C° 0,1 mm 5 m/s 746 mmHg 90%
    06:00 +17°C° 0,1 mm 5 m/s 746 mmHg 89%
    07:00 +19°C° 0,1 mm 5 m/s 746 mmHg 88%
    08:00 +19°C° 0,1 mm 6 m/s 747 mmHg 86%
    09:00 +19°C° 0,1 mm 6 m/s 747 mmHg 84%
    10:00 +19°C° 0,1 mm 6 m/s 747 mmHg 85%
    11:00 +19°C° 0,1 mm 6 m/s 747 mmHg 86%
    12:00 +19°C° 0,1 mm 6 m/s 747 mmHg 86%
    13:00 +19°C° 0,2 mm 6 m/s 747 mmHg 87%
    14:00 +20°C° 0,2 mm 5 m/s 747 mmHg 87%
    15:00 +20°C° 0,2 mm 5 m/s 747 mmHg 88%
    16:00 +20°C° 0,4 mm 5 m/s 747 mmHg 87%
    17:00 +20°C° 0,4 mm 5 m/s 747 mmHg 87%
    18:00 +21°C° 0,4 mm 5 m/s 747 mmHg 87%
    19:00 +21°C° 0,5 mm 5 m/s 747 mmHg 88%
    20:00 +20°C° 0,5 mm 5 m/s 747 mmHg 90%
    21:00 +20°C° 0,5 mm 5 m/s 747 mmHg 91%
    22:00 +20°C° 0,5 mm 5 m/s 747 mmHg 91%
    23:00 +19°C° 0,5 mm 5 m/s 747 mmHg 91%

    24 Juillet, Mardi

    Heure Température Précipitation Vent Pression Humidité
    00:00 +19°C° 0,5 mm 5 m/s 747 mmHg 90%
    01:00 +17°C° 0,3 mm 5 m/s 747 mmHg 91%
    02:00 +17°C° 0,3 mm 5 m/s 747 mmHg 91%
    03:00 +16°C° 0,3 mm 5 m/s 747 mmHg 91%
    04:00 +16°C° 0,2 mm 5 m/s 748 mmHg 90%
    05:00 +16°C° 0,2 mm 5 m/s 748 mmHg 89%
    06:00 +17°C° 0,2 mm 5 m/s 748 mmHg 89%
    07:00 +19°C° 0,1 mm 5 m/s 748 mmHg 85%
    08:00 +20°C° 0,1 mm 5 m/s 748 mmHg 81%
    09:00 +21°C° 0,1 mm 5 m/s 749 mmHg 77%
    10:00 +23°C° 0 mm 5 m/s 749 mmHg 74%
    11:00 +25°C° 0 mm 5 m/s 749 mmHg 70%
    12:00 +27°C° 0 mm 5 m/s 749 mmHg 66%
    13:00 +27°C° 0,3 mm 6 m/s 749 mmHg 65%
    14:00 +28°C° 0,3 mm 6 m/s 749 mmHg 63%
    15:00 +29°C° 0,3 mm 6 m/s 749 mmHg 62%
    16:00 +28°C° 0,2 mm 5 m/s 750 mmHg 65%
    17:00 +27°C° 0,2 mm 4 m/s 750 mmHg 69%
    18:00 +27°C° 0,2 mm 4 m/s 750 mmHg 72%
    19:00 +26°C° 0 mm 4 m/s 750 mmHg 73%
    20:00 +23°C° 0 mm 4 m/s 751 mmHg 75%
    21:00 +22°C° 0 mm 4 m/s 751 mmHg 76%
    22:00 +22°C° 0 mm 4 m/s 751 mmHg 76%
    23:00 +21°C° 0 mm 4 m/s 751 mmHg 76%

    25 Juillet, Mercredi

    Heure Température Précipitation Vent Pression Humidité
    00:00 +21°C° 0 mm 4 m/s 751 mmHg 75%
    01:00 +20°C° 0 mm 4 m/s 752 mmHg 74%
    02:00 +20°C° 0 mm 4 m/s 752 mmHg 73%
    03:00 +19°C° 0 mm 4 m/s 752 mmHg 71%
    04:00 +19°C° 0 mm 4 m/s 752 mmHg 72%
    05:00 +19°C° 0 mm 4 m/s 752 mmHg 72%
    06:00 +19°C° 0 mm 4 m/s 752 mmHg 73%
    07:00 +20°C° 0 mm 4 m/s 753 mmHg 71%
    08:00 +21°C° 0 mm 4 m/s 753 mmHg 68%
    09:00 +22°C° 0 mm 5 m/s 753 mmHg 66%
    10:00 +25°C° 0 mm 5 m/s 753 mmHg 62%
    11:00 +26°C° 0 mm 5 m/s 753 mmHg 58%
    12:00 +27°C° 0 mm 5 m/s 753 mmHg 54%
    13:00 +27°C° 0 mm 5 m/s 753 mmHg 53%
    14:00 +28°C° 0 mm 5 m/s 753 mmHg 52%
    15:00 +28°C° 0 mm 5 m/s 753 mmHg 50%
    16:00 +27°C° 0 mm 4 m/s 753 mmHg 55%
    17:00 +27°C° 0 mm 3 m/s 753 mmHg 59%
    18:00 +26°C° 0 mm 3 m/s 753 mmHg 63%
    19:00 +25°C° 0 mm 3 m/s 753 mmHg 67%
    20:00 +24°C° 0 mm 3 m/s 753 mmHg 72%
    21:00 +22°C° 0 mm 3 m/s 754 mmHg 77%
    22:00 +21°C° 0 mm 3 m/s 754 mmHg 80%
    23:00 +20°C° 0 mm 3 m/s 754 mmHg 83%

    26 Juillet, Jeudi

    Heure Température Précipitation Vent Pression Humidité
    00:00 +20°C° 0 mm 3 m/s 754 mmHg 86%
    01:00 +19°C° 0 mm 3 m/s 754 mmHg 87%
    02:00 +19°C° 0 mm 3 m/s 754 mmHg 87%
    03:00 +18°C° 0 mm 3 m/s 755 mmHg 88%
    04:00 +18°C° 0 mm 3 m/s 755 mmHg 85%
    05:00 +19°C° 0 mm 3 m/s 755 mmHg 83%
    06:00 +19°C° 0 mm 3 m/s 755 mmHg 80%
    07:00 +21°C° 0 mm 4 m/s 755 mmHg 75%
    08:00 +23°C° 0 mm 4 m/s 755 mmHg 70%
    09:00 +26°C° 0 mm 5 m/s 755 mmHg 65%
    10:00 +27°C° 0 mm 5 m/s 755 mmHg 61%
    11:00 +28°C° 0 mm 5 m/s 755 mmHg 56%
    12:00 +29°C° 0 mm 6 m/s 755 mmHg 51%
    13:00 +29°C° 0 mm 5 m/s 755 mmHg 51%
    14:00 +30°C° 0 mm 5 m/s 755 mmHg 52%
    15:00 +30°C° 0 mm 5 m/s 755 mmHg 52%
    16:00 +29°C° 0 mm 4 m/s 755 mmHg 55%
    17:00 +29°C° 0 mm 4 m/s 755 mmHg 59%
    18:00 +29°C° 0 mm 3 m/s 755 mmHg 62%
    19:00 +27°C° 0 mm 3 m/s 755 mmHg 66%
    20:00 +25°C° 0 mm 3 m/s 755 mmHg 70%
    21:00 +24°C° 0 mm 3 m/s 755 mmHg 73%
    22:00 +22°C° 0,1 mm 3 m/s 755 mmHg 76%
    23:00 +21°C° 0,1 mm 3 m/s 756 mmHg 79%
    Voir plus